Dades meteomassalio
Diari Summary for Juliol 7, 2017 Units:  English    Metric   Both
« Previous Day
Next Day »
Diari Semanal Mensual Anual Personalitzat
  Maxima: Minima: Mijana:
Temperatura: TemperatureC °F 21.0 °F 26.7 °F
Rosada: DewpointC °F 7.4 °F 13.4 °F
Humitat: Humidity % 21 % 47 %
Velocitat del vent: WindSpeedKMH mph 0.0 mph 7.9 mph
Racha vent: WindSpeedGustKMH mph - -
Vent:- - SE
Pressio: PressurehPa in 1013.4 in -
Pluja: 0.0 in    
Historical Graphs
 
 
Tabular Data for Juliol 7, 2017
Time Temperature Dew Point Pressure Wind Wind Speed Wind Gust Humidity Rainfall Rate (Hourly) solar Conditions
TemperatureC °F DewpointC °F PressurehPa in Calm     Humidity % HourlyPrecipMM in SolarRadiationWatts/m^2 W/m2 Conditions
00:01 23.6 °F 16.1 °F 1016.5 in Calm     63 % 0.0 in 0.0 W/m2 CLR
00:06 23.5 °F 16.1 °F 1016.5 in Calm     63 % 0.0 in 0.0 W/m2 CLR
00:11 23.4 °F 16.2 °F 1016.5 in Calm     64 % 0.0 in 0.0 W/m2 CLR
00:16 23.3 °F 16.1 °F 1016.5 in Calm     64 % 0.0 in 0.0 W/m2 CLR
00:21 23.3 °F 16.1 °F 1016.5 in Calm     64 % 0.0 in 0.0 W/m2 CLR
00:26 23.3 °F 16.1 °F 1016.5 in Calm     64 % 0.0 in 0.0 W/m2 CLR
00:31 23.2 °F 16.1 °F 1016.5 in Calm     64 % 0.0 in 0.0 W/m2 CLR
00:36 23.2 °F 16.2 °F 1016.5 in Calm     65 % 0.0 in 0.0 W/m2 CLR
00:41 23.2 °F 16.2 °F 1016.5 in Calm     65 % 0.0 in 0.0 W/m2 CLR
00:46 23.1 °F 16.2 °F 1016.8 in Calm     65 % 0.0 in 0.0 W/m2 CLR
00:51 23.1 °F 16.2 °F 1016.8 in Calm     65 % 0.0 in 0.0 W/m2 CLR
00:56 23.0 °F 16.1 °F 1016.8 in Calm     65 % 0.0 in 0.0 W/m2 CLR
01:01 22.9 °F 16.2 °F 1017.2 in Calm     66 % 0.0 in 0.0 W/m2 CLR
01:06 22.8 °F 15.9 °F 1017.2 in Calm     65 % 0.0 in 0.0 W/m2 CLR
01:11 22.6 °F 15.9 °F 1017.2 in Calm     66 % 0.0 in 0.0 W/m2 CLR
01:16 22.5 °F 15.8 °F 1017.2 in Calm     66 % 0.0 in 0.0 W/m2 CLR
01:21 22.3 °F 15.8 °F 1017.5 in Calm     67 % 0.0 in 0.0 W/m2 CLR
01:26 22.2 °F 15.8 °F 1017.2 in Calm     67 % 0.0 in 0.0 W/m2 CLR
01:31 22.1 °F 15.7 °F 1017.2 in Calm     67 % 0.0 in 0.0 W/m2 CLR
01:37 22.1 °F 15.9 °F 1017.5 in Calm     68 % 0.0 in 0.0 W/m2 CLR
01:42 21.9 °F 15.8 °F 1017.5 in Calm     68 % 0.0 in 0.0 W/m2 CLR
01:47 21.9 °F 15.9 °F 1017.5 in Calm     69 % 0.0 in 0.0 W/m2 CLR
01:52 21.9 °F 15.9 °F 1017.5 in Calm     69 % 0.0 in 0.0 W/m2 CLR
01:56 21.9 °F 15.9 °F 1017.5 in Calm     69 % 0.0 in 0.0 W/m2 CLR
02:02 21.9 °F 15.9 °F 1017.5 in Calm     69 % 0.0 in 0.0 W/m2 CLR
02:07 21.9 °F 15.9 °F 1017.5 in Calm     69 % 0.0 in 0.0 W/m2 CLR
02:12 21.8 °F 15.9 °F 1017.2 in Calm     69 % 0.0 in 0.0 W/m2 CLR
02:17 21.8 °F 15.8 °F 1017.2 in Calm     69 % 0.0 in 0.0 W/m2 CLR
02:22 21.6 °F 15.7 °F 1017.5 in Calm     69 % 0.0 in 0.0 W/m2 CLR
02:27 21.5 °F 15.8 °F 1017.5 in Calm     70 % 0.0 in 0.0 W/m2 CLR
02:32 21.4 °F 15.7 °F 1017.5 in Calm     70 % 0.0 in 0.0 W/m2 CLR
02:37 21.3 °F 15.6 °F 1017.5 in Calm     70 % 0.0 in 0.0 W/m2 CLR
02:42 21.2 °F 15.8 °F 1017.2 in Calm     71 % 0.0 in 0.0 W/m2 CLR
02:47 21.2 °F 15.8 °F 1017.5 in Calm     71 % 0.0 in 0.0 W/m2 CLR
02:52 21.2 °F 15.7 °F 1017.5 in Calm     71 % 0.0 in 0.0 W/m2 CLR
02:57 21.1 °F 15.6 °F 1017.5 in Calm     71 % 0.0 in 0.0 W/m2 CLR
03:02 21.1 °F 15.8 °F 1017.5 in Calm     72 % 0.0 in 0.0 W/m2 CLR
03:07 21.0 °F 15.8 °F 1017.5 in Calm     72 % 0.0 in 0.0 W/m2 CLR
03:12 21.0 °F 15.8 °F 1017.8 in WSW 7.4 mph 7.4 mph 72 % 0.0 in 0.0 W/m2 CLR
03:17 21.1 °F 16.1 °F 1017.8 in SW 5.6 mph 5.6 mph 73 % 0.0 in 0.0 W/m2 CLR
03:27 21.3 °F 15.8 °F 1017.8 in SSW 5.6 mph 5.6 mph 71 % 0.0 in 0.0 W/m2 CLR
03:32 21.3 °F 15.8 °F 1017.5 in Calm     71 % 0.0 in 0.0 W/m2 CLR
03:37 21.3 °F 15.8 °F 1017.5 in Calm     71 % 0.0 in 0.0 W/m2 CLR
03:42 21.4 °F 16.2 °F 1017.5 in SW 5.6 mph 5.6 mph 72 % 0.0 in 0.0 W/m2 CLR
03:47 21.7 °F 16.2 °F 1017.5 in Calm     71 % 0.0 in 0.0 W/m2 CLR
03:53 21.7 °F 16.2 °F 1017.5 in Calm     71 % 0.0 in 0.0 W/m2 CLR
03:58 21.7 °F 15.9 °F 1017.5 in Calm     70 % 0.0 in 0.0 W/m2 CLR
04:03 21.6 °F 16.1 °F 1017.8 in SW 8.0 mph 8.0 mph 71 % 0.0 in 0.0 W/m2 CLR
04:08 21.7 °F 16.2 °F 1017.5 in Calm     71 % 0.0 in 0.0 W/m2 CLR
04:13 21.8 °F 16.3 °F 1017.5 in Calm     71 % 0.0 in 0.0 W/m2 CLR
04:18 21.8 °F 16.1 °F 1017.5 in Calm     70 % 0.0 in 0.0 W/m2 CLR
04:23 21.7 °F 16.0 °F 1017.5 in Calm     70 % 0.0 in 0.0 W/m2 CLR
04:28 21.6 °F 16.1 °F 1017.5 in Calm     71 % 0.0 in 0.0 W/m2 CLR
04:33 21.7 °F 15.9 °F 1017.5 in Calm     70 % 0.0 in 0.0 W/m2 CLR
04:38 21.6 °F 15.9 °F 1017.5 in Calm     70 % 0.0 in 0.0 W/m2 CLR
04:43 21.7 °F 16.0 °F 1017.5 in Calm     70 % 0.0 in 0.0 W/m2 CLR
04:48 21.7 °F 16.0 °F 1017.2 in Calm     70 % 0.0 in 0.0 W/m2 CLR
04:53 21.7 °F 16.2 °F 1017.2 in Calm     71 % 0.0 in 0.0 W/m2 CLR
04:58 21.8 °F 16.1 °F 1017.2 in NNE 3.2 mph 3.2 mph 70 % 0.0 in 0.0 W/m2 CLR
05:03 21.7 °F 15.9 °F 1017.2 in NW 11.1 mph 11.1 mph 70 % 0.0 in 0.0 W/m2 CLR
05:08 21.7 °F 16.2 °F 1017.2 in NW 5.6 mph   71 % 0.0 in 0.0 W/m2 CLR
05:13 21.8 °F 16.3 °F 1017.2 in WSW 3.7 mph   71 % 0.0 in 0.0 W/m2 CLR
05:18 21.9 °F 16.4 °F 1017.5 in SSW 8.0 mph 8.0 mph 71 % 0.0 in 0.0 W/m2 CLR
05:23 22.0 °F 16.3 °F 1017.2 in Calm     70 % 0.0 in 0.0 W/m2 CLR
05:28 22.1 °F 16.4 °F 1016.8 in ENE 3.7 mph 3.7 mph 70 % 0.0 in 0.0 W/m2 CLR
05:33 22.1 °F 16.2 °F 1016.8 in Calm     69 % 0.0 in 0.0 W/m2 CLR
05:38 21.9 °F 16.2 °F 1017.2 in Calm     70 % 0.0 in 0.0 W/m2 CLR
05:43 21.7 °F 16.0 °F 1016.8 in Calm     70 % 0.0 in 0.0 W/m2 CLR
05:48 21.6 °F 16.1 °F 1016.5 in Calm     71 % 0.0 in 0.0 W/m2 CLR
05:53 21.6 °F 16.1 °F 1016.5 in Calm     71 % 0.0 in 0.0 W/m2 CLR
05:55 21.6 °F 16.1 °F 1016.8 in Calm     71 % 0.0 in 0.0 W/m2 CLR
06:00 21.7 °F 16.2 °F 1016.5 in Calm     71 % 0.0 in 0.0 W/m2 CLR
06:05 21.7 °F 16.2 °F 1016.5 in SSE 5.6 mph   71 % 0.0 in 0.0 W/m2 CLR
06:10 21.7 °F 16.0 °F 1016.1 in Calm     70 % 0.0 in 0.0 W/m2 CLR
06:15 21.7 °F 15.9 °F 1016.1 in Calm     70 % 0.0 in 0.0 W/m2 CLR
06:20 21.7 °F 16.0 °F 1016.1 in Calm     70 % 0.0 in 0.0 W/m2 CLR
06:25 21.7 °F 15.9 °F 1016.1 in Calm   0.5 mph 70 % 0.0 in 0.0 W/m2 OVC
06:30 21.7 °F 15.9 °F 1016.1 in Calm     70 % 0.0 in 0.0 W/m2 OVC
06:35 21.6 °F 15.9 °F 1016.1 in Calm     70 % 0.0 in 0.0 W/m2 OVC
06:40 21.6 °F 15.9 °F 1016.1 in Calm     70 % 0.0 in 0.0 W/m2 OVC
06:45 21.5 °F 15.8 °F 1016.1 in Calm     70 % 0.0 in 7.0 W/m2 OVC
06:50 21.4 °F 15.9 °F 1016.1 in Calm     71 % 0.0 in 11.0 W/m2 BKN
06:55 21.4 °F 15.9 °F 1016.1 in Calm     71 % 0.0 in 11.0 W/m2 BKN
07:00 21.4 °F 15.9 °F 1016.1 in Calm     71 % 0.0 in 11.0 W/m2 BKN
07:05 21.5 °F 16.0 °F 1015.8 in Calm     71 % 0.0 in 12.0 W/m2 BKN
07:10 21.6 °F 16.1 °F 1015.8 in Calm     71 % 0.0 in 21.0 W/m2 BKN
07:15 21.6 °F 15.9 °F 1015.8 in Calm     70 % 0.0 in 37.0 W/m2 BKN
07:20 21.7 °F 15.9 °F 1015.8 in Calm     70 % 0.0 in 47.0 W/m2 SCT
07:25 21.6 °F 15.9 °F 1016.1 in WNW 5.6 mph 5.6 mph 70 % 0.0 in 49.0 W/m2 SCT
07:30 21.9 °F 16.0 °F 1016.1 in WNW 5.6 mph 5.6 mph 69 % 0.0 in 53.0 W/m2 SCT
07:35 22.3 °F 16.1 °F 1016.1 in NW 9.7 mph 9.7 mph 68 % 0.0 in 56.0 W/m2 SCT
07:40 22.5 °F 15.8 °F 1016.5 in NW 7.4 mph 7.4 mph 66 % 0.0 in 56.0 W/m2 SCT
07:45 22.8 °F 15.8 °F 1016.5 in NW 3.7 mph 3.7 mph 65 % 0.0 in 56.0 W/m2 SCT
07:50 22.9 °F 15.9 °F 1016.5 in Calm     65 % 0.0 in 62.0 W/m2 SCT
07:55 23.0 °F 16.3 °F 1016.5 in Calm     66 % 0.0 in 60.0 W/m2 SCT
08:00 22.9 °F 16.3 °F 1016.5 in Calm     66 % 0.0 in 56.0 W/m2 SCT
08:05 22.9 °F 15.9 °F 1016.5 in Calm     65 % 0.0 in 65.0 W/m2 SCT
08:10 22.9 °F 15.9 °F 1016.5 in Calm     65 % 0.0 in 83.0 W/m2 SCT
08:16 22.9 °F 16.3 °F 1016.5 in Calm     66 % 0.0 in 116.0 W/m2 FEW
08:21 23.0 °F 16.3 °F 1016.8 in Calm     66 % 0.0 in 141.0 W/m2 CLR
08:26 23.1 °F 16.1 °F 1016.8 in Calm     65 % 0.0 in 91.0 W/m2 CLR
08:31 23.2 °F 16.1 °F 1016.8 in Calm     64 % 0.0 in 83.0 W/m2 CLR
08:36 23.3 °F 16.1 °F 1016.8 in Calm     64 % 0.0 in 93.0 W/m2 CLR
08:41 23.3 °F 16.3 °F 1016.8 in Calm     65 % 0.0 in 111.0 W/m2 CLR
08:46 23.3 °F 16.4 °F 1017.2 in Calm     65 % 0.0 in 281.0 W/m2 CLR
08:51 23.6 °F 16.4 °F 1017.2 in WSW 8.0 mph 8.0 mph 64 % 0.0 in 225.0 W/m2 CLR
08:56 24.0 °F 16.3 °F 1016.8 in WSW 7.4 mph 7.4 mph 62 % 0.0 in 260.0 W/m2 CLR
09:01 24.3 °F 16.3 °F 1016.8 in Calm     61 % 0.0 in 323.0 W/m2 CLR
09:06 24.7 °F 16.4 °F 1016.8 in Calm     60 % 0.0 in 315.0 W/m2 CLR
09:11 25.0 °F 16.2 °F 1016.5 in Calm     58 % 0.0 in 276.0 W/m2 CLR
09:16 25.5 °F 16.9 °F 1016.5 in NE 5.6 mph 5.6 mph 59 % 0.0 in 279.0 W/m2 CLR
09:21 25.7 °F 16.6 °F 1016.5 in Calm     57 % 0.0 in 294.0 W/m2 CLR
09:26 25.8 °F 16.3 °F 1016.5 in Calm     56 % 0.0 in 271.0 W/m2 CLR
09:31 25.8 °F 16.1 °F 1016.8 in Calm     55 % 0.0 in 250.0 W/m2 CLR
09:36 25.7 °F 16.0 °F 1016.5 in Calm     55 % 0.0 in 297.0 W/m2 CLR
09:41 25.8 °F 16.1 °F 1016.8 in Calm     55 % 0.0 in 250.0 W/m2 CLR
09:46 26.0 °F 15.9 °F 1016.8 in Calm     54 % 0.0 in 236.0 W/m2 CLR
09:51 26.3 °F 16.2 °F 1016.5 in Calm     54 % 0.0 in 285.0 W/m2 CLR
09:56 26.3 °F 16.3 °F 1016.5 in Calm     54 % 0.0 in 371.0 W/m2 CLR
10:01 26.6 °F 16.2 °F 1016.5 in Calm     53 % 0.0 in 352.0 W/m2 CLR
10:06 26.9 °F 16.2 °F 1016.5 in Calm     52 % 0.0 in 383.0 W/m2 CLR
10:11 27.4 °F 16.3 °F 1016.5 in Calm     51 % 0.0 in 308.0 W/m2 CLR
10:16 27.6 °F 15.9 °F 1016.5 in Calm     49 % 0.0 in 343.0 W/m2 CLR
10:21 27.7 °F 15.7 °F 1016.5 in Calm     48 % 0.0 in 450.0 W/m2 CLR
10:26 28.1 °F 16.0 °F 1016.5 in Calm     48 % 0.0 in 534.0 W/m2 CLR
10:31 28.5 °F 15.8 °F 1016.5 in Calm     46 % 0.0 in 652.0 W/m2 CLR
10:36 29.1 °F 15.6 °F 1016.5 in Calm     44 % 0.0 in 584.0 W/m2 CLR
10:41 29.5 °F 15.2 °F 1016.1 in Calm   1.4 mph 42 % 0.0 in 652.0 W/m2 CLR
10:46 29.6 °F 14.9 °F 1016.1 in NE 5.6 mph 5.6 mph 41 % 0.0 in 522.0 W/m2 CLR
10:51 29.8 °F 15.1 °F 1016.1 in NE 3.2 mph 3.2 mph 41 % 0.0 in 686.0 W/m2 CLR
10:56 30.1 °F 15.0 °F 1016.1 in NE 9.3 mph 9.3 mph 40 % 0.0 in 689.0 W/m2 CLR
11:01 30.2 °F 14.7 °F 1016.1 in NE 5.6 mph 5.6 mph 39 % 0.0 in 624.0 W/m2 CLR
11:06 30.3 °F 14.0 °F 1016.1 in Calm     37 % 0.0 in 631.0 W/m2 CLR
11:11 30.6 °F 14.3 °F 1016.1 in NE 7.4 mph 7.4 mph 37 % 0.0 in 652.0 W/m2 CLR
11:16 30.7 °F 13.9 °F 1016.1 in NNE 5.6 mph 5.6 mph 36 % 0.0 in 624.0 W/m2 CLR
11:21 31.0 °F 13.7 °F 1016.1 in NE 1.9 mph 1.9 mph 35 % 0.0 in 584.0 W/m2 CLR
11:27 31.3 °F 13.6 °F 1016.1 in ENE 11.1 mph 11.1 mph 34 % 0.0 in 547.0 W/m2 CLR
11:32 31.3 °F 12.7 °F 1016.1 in East 11.1 mph 11.1 mph 32 % 0.0 in 577.0 W/m2 CLR
11:37 31.3 °F 12.2 °F 1015.8 in ESE 16.1 mph 16.1 mph 31 % 0.0 in 636.0 W/m2 CLR
11:42 31.6 °F 11.3 °F 1015.8 in SE 24.1 mph 24.1 mph 29 % 0.0 in 603.0 W/m2 CLR
11:47 31.7 °F 10.9 °F 1016.1 in ESE 24.1 mph 24.1 mph 28 % 0.0 in 531.0 W/m2 CLR
11:52 31.7 °F 10.9 °F 1015.8 in SE 25.9 mph 25.9 mph 28 % 0.0 in 497.0 W/m2 CLR
11:57 31.7 °F 11.4 °F 1015.8 in ESE 22.5 mph 22.5 mph 29 % 0.0 in 496.0 W/m2 CLR
12:02 31.7 °F 11.4 °F 1015.8 in East 22.5 mph 22.5 mph 29 % 0.0 in 619.0 W/m2 CLR
12:07 31.8 °F 11.0 °F 1015.8 in East 22.2 mph 22.2 mph 28 % 0.0 in 698.0 W/m2 CLR
12:12 31.8 °F 10.4 °F 1015.8 in East 24.1 mph 24.1 mph 27 % 0.0 in 494.0 W/m2 CLR
12:17 31.9 °F 11.1 °F 1015.8 in ESE 18.5 mph 18.5 mph 28 % 0.0 in 563.0 W/m2 CLR
12:22 32.1 °F 10.7 °F 1015.8 in ESE 20.4 mph 21.9 mph 27 % 0.0 in 724.0 W/m2 CLR
12:27 32.2 °F 11.4 °F 1015.8 in East 19.3 mph 19.3 mph 28 % 0.0 in 682.0 W/m2 CLR
12:32 32.3 °F 10.9 °F 1015.5 in East 18.5 mph 18.5 mph 27 % 0.0 in 568.0 W/m2 CLR
12:37 31.9 °F 10.6 °F 1015.5 in ESE 29.6 mph 29.6 mph 27 % 0.0 in 526.0 W/m2 CLR
12:42 31.7 °F 10.4 °F 1015.8 in SE 29.6 mph 29.6 mph 27 % 0.0 in 522.0 W/m2 CLR
12:47 31.7 °F 11.5 °F 1015.5 in ESE 24.1 mph 24.1 mph 29 % 0.0 in 564.0 W/m2 CLR
12:52 32.1 °F 11.3 °F 1015.5 in ESE 25.9 mph 25.9 mph 28 % 0.0 in 584.0 W/m2 CLR
12:57 32.0 °F 11.2 °F 1015.5 in East 31.5 mph 31.5 mph 28 % 0.0 in 585.0 W/m2 CLR
13:02 31.8 °F 11.1 °F 1015.5 in East 31.5 mph 31.5 mph 28 % 0.0 in 613.0 W/m2 CLR
13:07 31.5 °F 11.3 °F 1015.5 in ESE 27.8 mph 27.8 mph 29 % 0.0 in 522.0 W/m2 CLR
13:12 31.5 °F 11.8 °F 1015.8 in ESE 29.6 mph 29.6 mph 30 % 0.0 in 515.0 W/m2 CLR
13:17 31.7 °F 11.4 °F 1015.8 in ESE 27.8 mph 27.8 mph 29 % 0.0 in 531.0 W/m2 CLR
13:22 31.6 °F 11.9 °F 1015.8 in SE 27.4 mph 27.4 mph 30 % 0.0 in 501.0 W/m2 CLR
13:27 31.7 °F 11.4 °F 1015.8 in SE 20.4 mph 20.4 mph 29 % 0.0 in 464.0 W/m2 CLR
13:32 31.6 °F 11.4 °F 1015.5 in SSE 29.6 mph 29.6 mph 29 % 0.0 in 494.0 W/m2 CLR
13:37 31.6 °F 11.3 °F 1015.5 in ESE 25.9 mph 25.9 mph 29 % 0.0 in 476.0 W/m2 CLR
13:42 31.6 °F 11.4 °F 1015.5 in ESE 27.8 mph 27.8 mph 29 % 0.0 in 452.0 W/m2 CLR
13:48 31.8 °F 10.5 °F 1015.5 in SE 33.3 mph 33.3 mph 27 % 0.0 in 457.0 W/m2 CLR
13:53 32.3 °F 10.3 °F 1015.5 in SSE 29.0 mph 29.0 mph 26 % 0.0 in 512.0 W/m2 CLR
13:58 32.6 °F 9.4 °F 1015.5 in SE 31.5 mph 31.5 mph 24 % 0.0 in 517.0 W/m2 CLR
14:03 32.5 °F 8.7 °F 1015.5 in SE 33.3 mph 33.3 mph 23 % 0.0 in 584.0 W/m2 CLR
14:08 32.7 °F 9.5 °F 1015.5 in ESE 31.5 mph 31.5 mph 24 % 0.0 in 483.0 W/m2 CLR
14:13 32.3 °F 9.1 °F 1015.5 in SE 38.9 mph 38.9 mph 24 % 0.0 in 448.0 W/m2 CLR
14:18 32.0 °F 8.9 °F 1015.1 in SE 31.5 mph 31.5 mph 24 % 0.0 in 397.0 W/m2 CLR
14:23 31.8 °F 8.8 °F 1015.1 in SE 33.3 mph 33.3 mph 24 % 0.0 in 415.0 W/m2 CLR
14:28 31.7 °F 9.3 °F 1015.5 in SSE 29.6 mph 29.6 mph 25 % 0.0 in 517.0 W/m2 CLR
14:33 31.7 °F 8.7 °F 1015.8 in SE 31.5 mph 31.5 mph 24 % 0.0 in 536.0 W/m2 CLR
14:38 31.8 °F 8.1 °F 1015.8 in ESE 29.6 mph 29.6 mph 23 % 0.0 in 543.0 W/m2 CLR
14:43 31.8 °F 8.8 °F 1015.8 in SSE 25.9 mph 25.9 mph 24 % 0.0 in 547.0 W/m2 CLR
14:48 32.1 °F 8.4 °F 1015.8 in SSE 24.1 mph 24.1 mph 23 % 0.0 in 563.0 W/m2 CLR
14:53 32.2 °F 7.8 °F 1015.8 in SSE 25.9 mph 25.9 mph 22 % 0.0 in 548.0 W/m2 CLR
14:58 32.0 °F 8.3 °F 1015.8 in SE 27.8 mph 27.8 mph 23 % 0.0 in 664.0 W/m2 CLR
15:03 32.3 °F 8.5 °F 1015.8 in SE 24.1 mph 24.1 mph 23 % 0.0 in 540.0 W/m2 CLR
15:08 32.4 °F 8.0 °F 1015.8 in SSE 31.5 mph 31.5 mph 22 % 0.0 in 434.0 W/m2 CLR
15:13 32.6 °F 8.1 °F 1016.1 in SE 19.3 mph 19.3 mph 22 % 0.0 in 529.0 W/m2 CLR
15:18 32.6 °F 7.4 °F 1016.1 in ESE 35.2 mph 35.2 mph 21 % 0.0 in 367.0 W/m2 CLR
15:23 32.3 °F 7.9 °F 1016.1 in SE 31.5 mph 31.5 mph 22 % 0.0 in 287.0 W/m2 CLR
15:28 32.1 °F 7.7 °F 1016.5 in SE 33.3 mph 33.3 mph 22 % 0.0 in 227.0 W/m2 CLR
15:33 31.9 °F 8.2 °F 1016.5 in SE 25.9 mph 25.9 mph 23 % 0.0 in 174.0 W/m2 CLR
15:38 31.7 °F 8.1 °F 1016.5 in South 20.4 mph 20.4 mph 23 % 0.0 in 139.0 W/m2 CLR
15:43 31.7 °F 8.0 °F 1016.5 in SE 16.7 mph 16.7 mph 23 % 0.0 in 118.0 W/m2 CLR
15:48 31.6 °F 8.6 °F 1016.5 in SSE 14.8 mph 14.8 mph 24 % 0.0 in 100.0 W/m2 CLR
15:53 31.5 °F 8.5 °F 1016.5 in SSE 13.0 mph 13.0 mph 24 % 0.0 in 98.0 W/m2 CLR
15:58 31.4 °F 8.4 °F 1016.5 in ESE 11.1 mph 11.1 mph 24 % 0.0 in 116.0 W/m2 CLR
16:03 31.3 °F 8.3 °F 1016.5 in SE 9.3 mph 9.3 mph 24 % 0.0 in 148.0 W/m2 CLR
16:08 31.3 °F 8.3 °F 1016.5 in SE 14.8 mph 14.8 mph 24 % 0.0 in 171.0 W/m2 CLR
16:13 31.3 °F 8.9 °F 1016.5 in SE 3.7 mph 3.7 mph 25 % 0.0 in 176.0 W/m2 CLR
16:18 31.2 °F 8.8 °F 1016.8 in SE 14.8 mph 14.8 mph 25 % 0.0 in 167.0 W/m2 CLR
16:23 31.0 °F 9.2 °F 1016.8 in SE 9.3 mph 9.3 mph 26 % 0.0 in 155.0 W/m2 CLR
16:28 30.9 °F 9.2 °F 1016.8 in SSE 13.0 mph 13.0 mph 26 % 0.0 in 149.0 W/m2 CLR
16:33 30.8 °F 9.6 °F 1016.5 in ESE 11.1 mph 11.1 mph 27 % 0.0 in 141.0 W/m2 CLR
16:38 30.7 °F 9.5 °F 1016.8 in SSE 11.1 mph 11.1 mph 27 % 0.0 in 132.0 W/m2 CLR
16:43 30.6 °F 10.0 °F 1016.5 in SE 9.3 mph 9.3 mph 28 % 0.0 in 121.0 W/m2 CLR
16:48 30.6 °F 10.0 °F 1016.5 in SSE 8.0 mph 8.0 mph 28 % 0.0 in 111.0 W/m2 CLR
16:53 30.6 °F 10.6 °F 1016.5 in SSE 13.0 mph 13.0 mph 29 % 0.0 in 100.0 W/m2 CLR
16:58 30.7 °F 10.6 °F 1016.1 in South 13.0 mph 13.0 mph 29 % 0.0 in 91.0 W/m2 CLR
17:03 30.7 °F 10.6 °F 1016.1 in SE 5.6 mph 5.6 mph 29 % 0.0 in 88.0 W/m2 CLR
17:08 30.7 °F 10.6 °F 1016.1 in SSE 3.7 mph 3.7 mph 29 % 0.0 in 86.0 W/m2 CLR
17:13 30.5 °F 10.9 °F 1016.5 in SE 9.3 mph 9.3 mph 30 % 0.0 in 67.0 W/m2 FEW
17:18 30.3 °F 10.8 °F 1015.8 in ESE 8.0 mph 8.0 mph 30 % 0.0 in 51.0 W/m2 FEW
17:23 30.3 °F 10.8 °F 1016.1 in SE 11.1 mph 11.1 mph 30 % 0.0 in 39.0 W/m2 SCT
17:28 30.3 °F 11.3 °F 1016.1 in South 7.4 mph 7.4 mph 31 % 0.0 in 30.0 W/m2 BKN
17:33 30.2 °F 11.2 °F 1016.1 in ESE 4.8 mph 4.8 mph 31 % 0.0 in 28.0 W/m2 BKN
17:38 30.1 °F 11.1 °F 1015.8 in ESE 16.7 mph 16.7 mph 31 % 0.0 in 28.0 W/m2 BKN
17:43 30.0 °F 11.0 °F 1015.1 in ESE 14.8 mph 14.8 mph 31 % 0.0 in 28.0 W/m2 BKN
17:48 29.8 °F 10.9 °F 1014.8 in East 31.5 mph 31.5 mph 31 % 0.0 in 39.0 W/m2 BKN
17:53 29.7 °F 11.3 °F 1014.8 in East 42.6 mph 42.6 mph 32 % 0.0 in 49.0 W/m2 BKN
17:58 29.9 °F 10.9 °F 1014.1 in SE 20.9 mph 20.9 mph 31 % 0.0 in 42.0 W/m2 BKN
18:03 30.0 °F 11.0 °F 1014.1 in ENE 11.1 mph 11.1 mph 31 % 0.0 in 40.0 W/m2 BKN
18:08 29.8 °F 11.3 °F 1014.8 in SE 22.2 mph 22.2 mph 32 % 0.0 in 53.0 W/m2 BKN
18:13 29.6 °F 12.1 °F 1014.8 in South 22.2 mph 22.2 mph 34 % 0.0 in 93.0 W/m2 SCT
18:18 29.3 °F 12.7 °F 1015.5 in South 24.1 mph 24.1 mph 36 % 0.0 in 105.0 W/m2 FEW
18:23 29.1 °F 13.3 °F 1015.5 in SSE 22.2 mph 22.2 mph 38 % 0.0 in 72.0 W/m2 CLR
18:28 28.8 °F 13.5 °F 1015.5 in SSE 18.5 mph 18.5 mph 39 % 0.0 in 40.0 W/m2 FEW
18:33 28.7 °F 13.4 °F 1015.1 in SE 5.6 mph   39 % 0.0 in 32.0 W/m2 SCT
18:38 28.7 °F 13.0 °F 1014.8 in Calm     38 % 0.0 in 32.0 W/m2 BKN
18:43 28.7 °F 13.0 °F 1014.4 in Calm     38 % 0.0 in 40.0 W/m2 BKN
18:48 28.7 °F 13.3 °F 1014.4 in Calm     39 % 0.0 in 47.0 W/m2 BKN
18:53 28.6 °F 14.0 °F 1013.8 in NNE 9.3 mph 9.3 mph 41 % 0.0 in 51.0 W/m2 SCT
18:58 28.3 °F 13.8 °F 1013.8 in NNW 7.4 mph 7.4 mph 41 % 0.0 in 84.0 W/m2 SCT
19:03 28.3 °F 12.2 °F 1013.8 in NE 11.1 mph 11.1 mph 37 % 0.0 in 120.0 W/m2 FEW
19:08 28.5 °F 12.4 °F 1014.1 in Calm     37 % 0.0 in 128.0 W/m2 CLR
19:13 28.7 °F 12.6 °F 1014.1 in SE 7.4 mph 7.4 mph 37 % 0.0 in 120.0 W/m2 CLR
19:18 28.7 °F 12.6 °F 1013.8 in Calm     37 % 0.0 in 95.0 W/m2 CLR
19:23 28.8 °F 12.2 °F 1014.4 in SSE 17.7 mph 17.7 mph 36 % 0.0 in 70.0 W/m2 CLR
19:28 28.9 °F 11.9 °F 1014.1 in SSE 3.7 mph   35 % 0.0 in 46.0 W/m2 FEW
19:33 28.9 °F 11.4 °F 1014.4 in East 16.7 mph 16.7 mph 34 % 0.0 in 46.0 W/m2 SCT
19:38 28.8 °F 11.8 °F 1014.1 in ESE 14.8 mph 14.8 mph 35 % 0.0 in 63.0 W/m2 SCT
19:43 28.8 °F 11.8 °F 1014.1 in East 6.4 mph 6.4 mph 35 % 0.0 in 116.0 W/m2 FEW
19:48 28.8 °F 12.3 °F 1014.1 in East 5.6 mph 5.6 mph 36 % 0.0 in 225.0 W/m2 CLR
19:53 28.8 °F 12.3 °F 1013.8 in ESE 7.4 mph   36 % 0.0 in 149.0 W/m2 CLR
19:58 28.9 °F 12.4 °F 1013.8 in Calm     36 % 0.0 in 246.0 W/m2 CLR
20:03 29.0 °F 12.4 °F 1013.8 in Calm     36 % 0.0 in 153.0 W/m2 CLR
20:08 29.1 °F 12.1 °F 1013.8 in Calm     35 % 0.0 in 114.0 W/m2 CLR
20:13 29.2 °F 12.1 °F 1013.4 in Calm     35 % 0.0 in 118.0 W/m2 CLR
20:18 29.2 °F 11.7 °F 1013.4 in ESE 5.6 mph 5.6 mph 34 % 0.0 in 105.0 W/m2 CLR
20:23 29.3 °F 11.8 °F 1013.8 in ESE 5.6 mph 5.6 mph 34 % 0.0 in 79.0 W/m2 CLR
20:29 29.3 °F 12.3 °F 1014.1 in SE 6.4 mph 6.4 mph 35 % 0.0 in 46.0 W/m2 FEW
20:34 29.2 °F 12.6 °F 1014.1 in ESE 11.1 mph 11.1 mph 36 % 0.0 in 23.0 W/m2 SCT
20:39 29.1 °F 12.9 °F 1014.1 in ESE 3.7 mph   37 % 0.0 in 14.0 W/m2 BKN
20:44 29.0 °F 12.4 °F 1014.1 in SE 6.4 mph 6.4 mph 36 % 0.0 in 14.0 W/m2 BKN
20:49 29.0 °F 12.0 °F 1013.8 in ESE 5.6 mph 5.6 mph 35 % 0.0 in 14.0 W/m2 BKN
20:54 29.0 °F 12.0 °F 1013.8 in ESE 5.6 mph   35 % 0.0 in 12.0 W/m2 BKN
20:59 28.9 °F 11.9 °F 1013.8 in Calm     35 % 0.0 in 5.0 W/m2 OVC
21:04 28.9 °F 12.3 °F 1014.1 in Calm     36 % 0.0 in 0.0 W/m2 OVC
21:09 28.8 °F 11.8 °F 1014.4 in Calm     35 % 0.0 in 0.0 W/m2 OVC
21:14 28.8 °F 11.8 °F 1014.4 in Calm     35 % 0.0 in 0.0 W/m2 OVC
21:19 28.7 °F 12.1 °F 1013.8 in Calm     36 % 0.0 in 0.0 W/m2 OVC
21:24 28.6 °F 12.0 °F 1014.1 in East 5.6 mph 5.6 mph 36 % 0.0 in 0.0 W/m2 OVC
21:29 28.5 °F 12.4 °F 1013.8 in NNE 5.6 mph 5.6 mph 37 % 0.0 in 0.0 W/m2 OVC
21:34 28.2 °F 12.2 °F 1014.1 in Calm     37 % 0.0 in 0.0 W/m2 OVC
21:39 28.1 °F 12.4 °F 1014.1 in Calm     38 % 0.0 in 0.0 W/m2 OVC
21:44 27.9 °F 12.7 °F 1014.1 in Calm     39 % 0.0 in 0.0 W/m2 OVC
21:49 27.7 °F 12.5 °F 1014.1 in Calm     39 % 0.0 in 0.0 W/m2 CLR
21:54 27.7 °F 12.5 °F 1014.1 in Calm     39 % 0.0 in 0.0 W/m2 CLR
21:59 27.6 °F 12.8 °F 1014.1 in Calm     40 % 0.0 in 0.0 W/m2 CLR
22:04 27.7 °F 12.5 °F 1013.8 in ENE 1.9 mph   39 % 0.0 in 0.0 W/m2 CLR
22:09 27.8 °F 12.2 °F 1013.8 in ENE 5.6 mph 5.6 mph 38 % 0.0 in 0.0 W/m2 CLR
22:14 27.8 °F 12.6 °F 1013.4 in Calm     39 % 0.0 in 0.0 W/m2 CLR
22:19 27.7 °F 13.3 °F 1013.4 in ENE 7.4 mph 7.4 mph 41 % 0.0 in 0.0 W/m2 CLR
22:24 27.6 °F 13.5 °F 1013.8 in ESE 9.3 mph 9.3 mph 42 % 0.0 in 0.0 W/m2 CLR
22:29 27.4 °F 13.7 °F 1014.1 in SE 11.1 mph 11.1 mph 43 % 0.0 in 0.0 W/m2 CLR
22:34 27.4 °F 13.7 °F 1014.1 in SE 5.6 mph 5.6 mph 43 % 0.0 in 0.0 W/m2 CLR
22:39 27.4 °F 13.8 °F 1014.1 in Calm     43 % 0.0 in 0.0 W/m2 CLR
22:44 27.5 °F 13.8 °F 1013.8 in Calm     43 % 0.0 in 0.0 W/m2 CLR
22:49 27.4 °F 13.8 °F 1013.8 in Calm     43 % 0.0 in 0.0 W/m2 CLR
22:54 27.3 °F 14.0 °F 1013.8 in Calm     44 % 0.0 in 0.0 W/m2 CLR
22:59 27.1 °F 14.2 °F 1013.8 in Calm     45 % 0.0 in 0.0 W/m2 CLR
23:04 27.0 °F 14.1 °F 1013.8 in Calm     45 % 0.0 in 0.0 W/m2 CLR
23:09 26.9 °F 14.0 °F 1014.1 in Calm     45 % 0.0 in 0.0 W/m2 CLR
23:14 26.9 °F 14.0 °F 1014.1 in Calm     45 % 0.0 in 0.0 W/m2 CLR
23:19 26.9 °F 13.9 °F 1014.1 in Calm     45 % 0.0 in 0.0 W/m2 CLR
23:24 26.9 °F 13.3 °F 1014.1 in Calm     43 % 0.0 in 0.0 W/m2 CLR
23:29 27.0 °F 12.6 °F 1014.1 in SSE 11.1 mph 11.1 mph 41 % 0.0 in 0.0 W/m2 CLR
23:34 27.1 °F 12.7 °F 1014.4 in SSE 5.6 mph   41 % 0.0 in 0.0 W/m2 CLR
23:39 27.2 °F 12.4 °F 1014.8 in South 11.3 mph 11.3 mph 40 % 0.0 in 0.0 W/m2 CLR
23:44 27.4 °F 11.1 °F 1014.8 in SSE 13.0 mph 13.0 mph 36 % 0.0 in 0.0 W/m2 CLR
23:49 27.8 °F 10.9 °F 1014.8 in SE 9.3 mph 9.3 mph 35 % 0.0 in 0.0 W/m2 CLR
23:54 27.9 °F 11.0 °F 1015.1 in SE 7.4 mph 7.4 mph 35 % 0.0 in 0.0 W/m2 CLR
23:59 27.8 °F 10.9 °F 1015.1 in SE 9.7 mph 9.7 mph 35 % 0.0 in 0.0 W/m2 CLR
Lo Temps de Massalio
Compliments of Weather Underground - 1.25 mb